Regional Weather Roundup
Issued by NWS

Home | Current Version | Previous Version | Text Only | Print | Product List | Glossary Off
Versions: 1 2 3 4 5 6 7 8 9 10 11 12 13 14 15 16 17 18 19 20 21 22 23 24 25 26 27 28 29 30 31 32 33 34 35 36 37 38 39 40 41 42 43 44 45 46 47 48 49 50

000
ASUS45 KSLC 011610
RWRUT

UTAH REGIONAL WEATHER ROUNDUP
NATIONAL WEATHER SERVICE SALT LAKE CITY UT
1000 AM MDT TUE SEP 01 2015

UTZ001>011-023>025-011700-

NORTHERN UTAH

CITY           SKY/WX    TMP DP  RH WIND       PRES   REMARKS
BRIGHAM CITY   MOSUNNY   71  41  33 CALM      30.01S
HILL AFB       PTSUNNY   80  47  31 S17G23    30.03S
LOGAN          SUNNY     66  38  35 N7        30.03R
OGDEN          MOSUNNY   74  45  35 S8        30.01R
PROVO AIRPORT  MOSUNNY   77  48  36 SE8       30.07S
SALT LAKE CITY PTSUNNY   79  46  31 S12G21    29.99S
VERNAL         SUNNY     67  48  50 SE6       30.17S
WENDOVER       MOSUNNY   75  34  22 E5        30.01R
HEBER CITY     MOSUNNY   72  43  35 NW3       30.13S
WEST JORDAN    SUNNY     77  48  36 SE17G23   30.05R

$$

UTZ012>022-026-027-011700-

SOUTHERN/CENTRAL UTAH

CITY           SKY/WX    TMP DP  RH WIND       PRES   REMARKS
BLANDING       SUNNY     70  50  48 SE8       30.31S
BRYCE CANYON   SUNNY     65  47  52 CALM      30.32S
CEDAR CITY     SUNNY     74  48  39 S14       30.16R
DELTA          SUNNY     77  44  30 S15       30.09R
HANKSVILLE     PTSUNNY   72  50  46 NW3       30.12F
MILFORD        SUNNY     78  48  34 S15       30.11S
MOAB/CYNLANDS  SUNNY     78  50  37 E6        30.10S
PRICE          SUNNY     70  48  45 E7        30.20R
ST GEORGE      MOSUNNY   84  54  34 E6        30.01S
KANAB          SUNNY     72  59  64 CALM      30.22R

$$

REGIONAL REPORTS     COLORADO/ARIZONA

CITY           SKY/WX    TMP DP  RH WIND       PRES   REMARKS
CRAIG, CO      SUNNY     69  48  47 E9        30.22S
GRAND JUNCTION MOSUNNY   72  50  45 SE9       30.15S
RIFLE          MOSUNNY   65  50  58 NW3       30.21F
MONTROSE       SUNNY     71  48  43 S6        30.23F
CORTEZ         SUNNY     73  48  41 N6        30.24S
PAGE, AZ       SUNNY     75  54  47 W3        30.12R
GRAND CANYON   SUNNY     67  52  58 SW9       30.29S
KINGMAN        SUNNY     82  47  29 VRB3      30.05S
FLAGSTAFF      SUNNY     69  48  47 CALM      30.31R

$$

REGIONAL REPORTS    NEVADA/IDAHO/WYOMING

CITY           SKY/WX    TMP DP  RH WIND       PRES   REMARKS
LAS VEGAS, NV  MOSUNNY   87  47  24 S10       29.89R
ELY            SUNNY     72  40  31 S9        30.15S
ELKO           SUNNY     65  29  25 N3        30.05S
POCATELLO, ID  SUNNY     62  37  39 VRB3      30.03R
BURLEY         SUNNY     64  42  44 CALM      29.99S
EVANSTON, WY   SUNNY     69  41  36 SW13      30.20S
ROCK SPRINGS   SUNNY     65  45  48 N3        30.20R
KEMMERER       SUNNY     66  36  32 SW5       30.21S

$$



USA.gov is the U.S. government's official web portal to all federal, state and local government web resources and services.